User: anonymous   Login
Location: DARK SKY Beskydy - Park tmavé oblohy, www.darkskybeskydy.cz
(49.4926°N, 18.5016°E)
Time: 10:34:12
(UTC+01:00)
Language:

A-11 Canister half - Orbit

View from above orbital plane
View from above orbital plane
View from above satellite
View from above satellite

Ground track
Ground track

The orbit data is extracted from the following two-line orbital elements,

1 00051U 60009C   24055.52003549 -.00000039  00000-0  43436-3 0  9991
2 00051  47.2119 139.8502 0109517 207.6400 151.8537 12.18321364828315
Epoch (UTC): 24 February 2024 12:28:51
Eccentricity: 0.0109517
inclination: 47.2119°
perigee height: 1512 km
apogee height: 1687 km
right ascension of ascending node: 139.8502°
argument of perigee: 207.6400°
revolutions per day: 12.18321364
mean anomaly at epoch: 151.8537°
orbit number at epoch: 82831

The dashed part of the orbit path shows where the satellite is in the earth's shadow,  

DLR